Regional Weather Roundup
Issued by NWS Charleston, SC

Current Version | Previous Version | Graphics & Text | Print | Product List | Glossary On
Versions: 1 2 3 4 5 6 7 8 9 10 11 12 13 14 15 16 17 18 19 20 21 22 23 24 25 26 27 28 29 30 31 32 33 34 35 36 37 38 39 40 41 42 43 44 45 46 47 48 49 50
000
ASUS42 KCHS 300610
RWRCHS
REGIONAL WEATHER ROUNDUP
NATIONAL WEATHER SERVICE CHARLESTON SC
200 AM EDT SAT AUG 30 2014

NOTE: "FAIR" INDICATES FEW OR NO CLOUDS BELOW 12,000 FEET WITH NO
SIGNIFICANT WEATHER AND/OR OBSTRUCTIONS TO VISIBILITY.

NOT ALL STATIONS ARE QUALITY CONTROLLED BY THE NATIONAL
WEATHER SERVICE. USE DATA WITH CAUTION...ESPECIALLY
DEWPOINT OBSERVATIONS.

SCZ027-030-031-034>040-042>050-300700-
...SOUTH CAROLINA...

CITY           SKY/WX    TMP DP  RH WIND       PRES   REMARKS
N CHARLESTON   FAIR      77  74  90 CALM      30.14S
6HR MIN TEMP:  76; 6HR MAX TEMP:  83;

WATERFRONT PRK   N/A     81 N/A N/A CALM        N/A
FORT JOHNSON   NOT AVBL
MOUNT PLEASANT FAIR      73  73 100 CALM      30.14S
JOHNS ISLAND   CLEAR     75  73  94 CALM      30.14S
PINOPOLIS        N/A     81  75  83 CALM      30.05F
MONCKS CORNER    N/A     75  75 100 CALM      30.14S FOG
SUMMERVILLE    FAIR      72  72 100 CALM      30.15S
BEAUFORT MCAS  FAIR      75  71  87 CALM      30.13S
6HR MIN TEMP:  75; 6HR MAX TEMP:  82;

BEAUFORT ARPT  FAIR      77  75  94 CALM      30.12F
HILTON HEAD IS FAIR      79  75  89 S3        30.13F
GEORGETOWN     NOT AVBL
WALTERBORO     FAIR      70 N/A N/A CALM      30.14F
ORANGEBURG     FAIR      74  69  85 CALM      30.15S
6HR MIN TEMP:  74; 6HR MAX TEMP:  82;

BARNWELL       FAIR      73  70  88 CALM      30.15S
AIKEN          FAIR      73  70  88 CALM      30.18F
MANNING        FAIR      73 N/A N/A CALM      30.14F
KINGSTREE      NOT AVBL
COLUMBIA       FAIR      77  68  73 E5        30.14S
6HR MIN TEMP:  76; 6HR MAX TEMP:  87;

SUMTER         FAIR      76  75  97 CALM      30.14S
6HR MIN TEMP:  76; 6HR MAX TEMP:  86;

FLORENCE       FAIR      75  72  90 CALM      30.16R
6HR MIN TEMP:  74; 6HR MAX TEMP:  85;

MYRTLE BEACH   FAIR      82  75  78 S7        30.15R
N MYRTLE BEACH FAIR      81  76  84 S5        30.14S
6HR MIN TEMP:  81; 6HR MAX TEMP:  83;


$$

GAZ063-065-086>088-099>101-113>116-118-119-134-136>141-150-300700-
...GEORGIA...

CITY           SKY/WX    TMP DP  RH WIND       PRES   REMARKS
SAVANNAH ARPT  FAIR      76  73  91 CALM      30.13R
6HR MIN TEMP:  76; 6HR MAX TEMP:  84;

HUNTER AAF     FAIR      78  74  90 N2        30.10S
6HR MIN TEMP:  77; 6HR MAX TEMP:  82;

FORT STEWART   NOT AVBL
STATESBORO     NOT AVBL
SYLVANIA       MOCLDY    72  71  99 CALM      30.14S FOG
CLAXTON        NOT AVBL
THOMSON        FAIR      77  73  87 CALM      30.17F
AUGUSTA-BUSH   FAIR      72  69  90 CALM      30.13S
6HR MIN TEMP:  71; 6HR MAX TEMP:  80;

AUGUSTA-DANIEL FAIR      77  70  79 E5        30.15S
SWAINSBORO     FAIR      79  77  94 CALM      30.14S
VIDALIA          N/A     75  72  88 CALM      30.13S
ALMA           MOCLDY    76  73  91 CALM      30.12S
6HR MIN TEMP:  76; 6HR MAX TEMP:  86;

WAYCROSS       CLOUDY    79  77  95 CALM      30.11F
JESUP            N/A     77  73  88 CALM      30.12S
BRUNSWICK      FAIR      81  73  78 CALM      30.12S
SAINT SIMONS   FAIR      81  75  82 S6        30.10F
6HR MIN TEMP:  80; 6HR MAX TEMP:  83;


$$

SCZ027-028-034-036>038-045-046-048>050-GAZ119-141-300700-
...LAKE AND SUPPLEMENTAL COASTAL OBSERVATIONS...

STATION/POSITION TIME  TEMP    WIND        PRES    WAVE   SWELL
                       AIR SEA DIR/SP/G            HT/PER HT/PER/DIR
                 (UTC) (F)     (DEG/KT/KT) (MB)    (FT/S) (FT/S/D)
UPR LAKE MARION  NOT AVBL
WINYAH BAY       0500   82     180/  5     1020.0S
LAKE MURRAY      0500   79     140/  3/  7 1020.3R
ACE BASIN NERRS  0500   74        CALM     1020.0S
FORT PULASKI     0600   81     160/  2/  5 1020.2S
SAPELO ISLAND    0500   82     180/  6     1020.0S

$$

ANZ835-935-AMZ111-154-330-350-352-354-374-450-454-472-300700-
...C-MAN AND BUOY OBSERVATIONS...

STATION/POSITION TIME  TEMP    WIND        PRES    WAVE   SWELL
                       AIR SEA DIR/SP/G            HT/PER HT/PER/DIR
                 (UTC) (F)     (DEG/KT/KT) (MB)    (FT/S) (FT/S/D)
FOLLY BEACH CMAN 0500   81     180/  6/  7 1021.0R
BUOY 41004       0600   83 83  180/  4/  6 1020.2R   3/ 8   2/ 8
BUOY 41008       0600   83 84  170/ 12/ 14 1019.5R   3/ 8   2/100/ 8
5E ST. MARYS GA  0600      84                N/A     3/ 4
FRYING PAN BUOY  NOT AVBL
BUOY 41025       0600   79     310/  4/  4 1021.5S   4/ 8   3/ 70/ 8
CAPE LOOKOUT NC  0500   80      90/  2/  2 1021.5R
BUOY 41002       0459   81 83  120/  4/  6 1022.1R   3/ 8   3/100/ 8
BUOY 41010       0600   83 84  160/  2/  4 1020.4F   3/ 8   3/100/ 8
BUOY 41012       NOT AVBL
ST AUGUSTINE FL  0600   76     190/  6/  7 1020.3R
CAPERS NEARSHORE 0500   81     190/  6/  6   N/A
FRIPP NEARSHORE  NOT AVBL


$$


USA.gov is the U.S. government's official web portal to all federal, state and local government web resources and services.